Location: Unspecified
(44.0704°N, 88.6889°W)
Time: 00:25:19
(UTC+02:00)

Altair - Pass Details

Date: 17 June 2019
Orbit: 1501 x 1683 km, 47.2° (Epoch: 14 July)

Event Time Altitude Azimuth Distance (km) Brightness Sun altitude
Rises 13:08:53 0° 291° (WNW) 4,921 9.7 8.2°
Reaches altitude 10° 13:13:10 10° 276° (W) 3,941 9.2 8.9°
Maximum altitude 13:19:45 20° 234° (SW) 3,216 8.7 10.0°
Drops below altitude 10° 13:26:21 10° 193° (SSW) 3,923 9.3 11.1°
Sets 13:30:39 0° 177° (S) 4,891 9.9 11.8°
